Showing default

COSMOS 90, 1588

Orbit data source: Space-Track

COSMOS 90, 1588 is a payload satellite owned by OKB-10 (CIS) in LEO that was launched on Sat, 18 Sep 1965 UTC via a KOSMOS 65S3 launch vehicle from the Tyuratam Missile And Space Complex (TTMTR). Payload-class satellites include a variety of spacecraft equipped with specific instruments for various scientific and technological missions. These include communications satellites like Starlink; space stations such as the ISS; scientific satellites like the Hubble; Earth observation satellites from companies like Planet Labs, Umbra, and HawkEye 360; GPS; miniature CubeSats for education and research; and military/defense satellites.

Loading next visibility...
Identifier
1588, 1965-073E
Orbit
LEO
Country
Flag of CISCIS
Related business
Manufacturer
OKB-10
Mission
Spacecraft
Bus & Motor
STRELA-1 11F610, Unknown motor
Mass
50 kg wet, 50 kg dry
Launch date (UTC)
1965-09-18 (61 years ago)
Launch vehicle
KOSMOS 65S3
Launch site
Tyuratam Missile And Space Complex (TTMTR)
Object type
Payload
Rocket body
Debris
Shape & HBR
Unknown
Radar Cross Section
Medium (>0.1 m² and <1 m²)

Expand to show TLE details & history
Last TLE update: 13 hours ago

TLE from 13 hours ago
0 COSMOS 90
1 01588U 65073E   26119.56202524 -.00000098  00000-0 -48014-4 0  9998
2 01588  56.0583  39.6142 0155777  15.8769 155.6124 12.34592427732986
Epoch: 2026-04-29T13:29Z
TLE epoch observation values (Epoch: 2026-04-29T13:29:18.980Z)
Latitude
6.41371°
Longitude
155.44588°
Altitude
1,642.571 km
Speed
7.002 km/s
True Right ascension
14h 21m 11s
True Declination
6° 22' 47"
Sunlit
Object was in full shadow at epoch
Visualization orbit readout
Latitude
Unknown
Longitude
Unknown
Altitude
Unknown
Speed
Unknown
Apparent Right ascension
Unknown
Apparent Declination
Unknown
Sunlit
N/A
Visualization observer readout
Local Sidereal Time
09:33:02
Azimuth
Unknown
Elevation
Unknown
Doppler factor
Unknown
Orbital elements
Apogee altitude
1,652.616 km
Perigee altitude
1,406.253 km
Semi-major axis
7,907.572 km
Eccentricity
0.01558
Inclination
56.0583°
RAAN
39.6142°
Arg. of periapsis
15.8769°
True anomaly
156.3366°
Mean anomaly
155.6124°
Eccentric anomaly
155.97577°
Mean motion
3.08659 °/min
Orbital period
116.63 mins
BSTAR
-0.000048014
Loading maneuver chart data...
Computing Atmospheric mass density...
Loading historical data...
Loading historical data...
Loading historical data...
Loading historical data...
Loading historical data...
Loading historical data...
Loading historical data...

Documentation

Showing up to 5 results
|